Location: Ellingshausen
(50.5460°N, 10.4723°E)
Time: 13:26:20
(UTC+00:00)

Cosmos 676 Rocket - Pass Details

Date: 18 April 2026
Orbit: 750 x 779 km, 74.0° (Epoch: 19 May)

Event Time Altitude Azimuth Distance (km) Brightness Sun altitude
Rises 23:44:40 0° 329° (NNW) 3,265 8.0 -28.1°
Reaches altitude 10° 23:47:14 10° 321° (NW) 2,329 7.0 -28.0°
Enters shadow 23:50:45 31° 285° (WNW) 1,340 5.2 -27.9°
